This is the latest recevied weather packets stored in our database for station/object KO4FR. If no packets are shown the sender has not sent any weather packets the latest 10 day(s).
| Time | Temp. | Humidity | Pressure | Rain* | Wind** | Luminosity | Snow |
|---|---|---|---|---|---|---|---|
| 1777882492 | 8.33° C | 69% | 1017.3 hPa | 0 mm | - | - | - |
| 1777882192 | 8.33° C | 69% | 1017.3 hPa | 0 mm | - | - | - |
| 1777881892 | 7.78° C | 69% | 1017.3 hPa | 0 mm | - | - | - |
| 1777881592 | 7.78° C | 69% | 1017.3 hPa | 0 mm | - | - | - |
| 1777881292 | 7.78° C | 69% | 1017.3 hPa | 0 mm | - | - | - |
| 1777880992 | 7.22° C | 69% | 1017.3 hPa | 0 mm | - | - | - |
| 1777880692 | 7.22° C | 69% | 1017.3 hPa | 0 mm | - | - | - |
| 1777880392 | 6.67° C | 65% | 1017.2 hPa | 0 mm | - | - | - |
| 1777880091 | 6.67° C | 59% | 1017.1 hPa | 0 mm | - | - | - |
| 1777879792 | 6.67° C | 59% | 1017.2 hPa | 0 mm | - | - | - |
| 1777879492 | 6.67° C | 60% | 1017.2 hPa | 0 mm | - | - | - |
| 1777879191 | 6.67° C | 59% | 1017.4 hPa | 0 mm | - | - | - |
| 1777878891 | 6.11° C | 58% | 1017.5 hPa | 0 mm | - | - | - |
| 1777878591 | 6.11° C | 57% | 1017.4 hPa | 0 mm | - | - | - |
| 1777878292 | 5.56° C | 54% | 1017.5 hPa | 0 mm | - | - | - |
| 1777877991 | 5° C | 40% | 1017.3 hPa | 0 mm | - | - | - |
| 1777877692 | 4.44° C | 33% | 1017.3 hPa | 0 mm | - | - | - |
| 1777877391 | 3.89° C | 34% | 1017.4 hPa | 0 mm | - | - | - |
| 1777877092 | 3.89° C | 37% | 1017.4 hPa | 0 mm | - | - | - |
| 1777876791 | 3.89° C | 39% | 1017.6 hPa | 0 mm | - | - | - |
| 1777876491 | 3.33° C | 40% | 1017.5 hPa | 0 mm | - | - | - |
| 1777876191 | 3.33° C | 42% | 1017.3 hPa | 0 mm | - | - | - |
| 1777875891 | 3.33° C | 45% | 1017.3 hPa | 0 mm | - | - | - |
| 1777875591 | 2.78° C | 47% | 1017.2 hPa | 0 mm | - | - | - |
| 1777875291 | 2.78° C | 47% | 1017.2 hPa | 0 mm | - | - | - |
* Rain latest hour (hover to see other rain measurements)
** Current wind speed in m/s (hover to see current wind gust speed)